TimeCDT,TemperatureF,Dew PointF,Humidity,Sea Level PressureIn,VisibilityMPH,Wind Direction,Wind SpeedMPH,Gust SpeedMPH,PrecipitationIn,Events,Conditions,WindDirDegrees,DateUTC
12:53 AM,57.0,35.1,44,30.29,10.0,NNE,4.6,-,N/A,,Overcast,30,2013-04-25 05:53:00
1:53 AM,55.9,35.1,45,30.28,10.0,NNE,4.6,-,N/A,,Overcast,20,2013-04-25 06:53:00
2:53 AM,54.0,34.0,47,30.28,10.0,North,6.9,-,N/A,,Scattered Clouds,10,2013-04-25 07:53:00
3:53 AM,52.0,33.1,49,30.29,10.0,NNE,3.5,-,N/A,,Scattered Clouds,20,2013-04-25 08:53:00
4:53 AM,53.1,32.0,45,30.31,10.0,NNE,3.5,-,N/A,,Overcast,20,2013-04-25 09:53:00
5:53 AM,53.1,33.1,47,30.30,10.0,NNE,6.9,-,N/A,,Overcast,30,2013-04-25 10:53:00
6:53 AM,53.1,33.1,47,30.31,10.0,NE,4.6,-,N/A,,Overcast,40,2013-04-25 11:53:00
7:53 AM,52.0,35.1,53,30.33,10.0,NE,3.5,-,N/A,,Mostly Cloudy,50,2013-04-25 12:53:00
8:53 AM,55.9,36.0,47,30.33,10.0,ENE,5.8,-,N/A,,Clear,60,2013-04-25 13:53:00
9:53 AM,59.0,36.0,42,30.33,10.0,East,8.1,-,N/A,,Mostly Cloudy,90,2013-04-25 14:53:00
10:53 AM,61.0,37.9,42,30.32,10.0,East,9.2,-,N/A,,Mostly Cloudy,100,2013-04-25 15:53:00
11:53 AM,64.0,39.9,41,30.31,10.0,East,9.2,-,N/A,,Clear,100,2013-04-25 16:53:00
12:53 PM,66.9,42.1,40,30.29,10.0,SE,8.1,-,N/A,,Clear,140,2013-04-25 17:53:00
1:53 PM,68.0,42.1,39,30.26,10.0,SE,11.5,16.1,N/A,,Clear,130,2013-04-25 18:53:00
2:53 PM,71.1,42.1,35,30.25,10.0,SE,9.2,-,N/A,,Clear,140,2013-04-25 19:53:00
3:53 PM,72.0,41.0,33,30.22,10.0,SE,12.7,17.3,N/A,,Partly Cloudy,130,2013-04-25 20:53:00
4:53 PM,72.0,42.1,34,30.18,10.0,SE,16.1,-,N/A,,Clear,140,2013-04-25 21:53:00
5:53 PM,71.1,42.1,35,30.17,10.0,SE,15.0,-,N/A,,Clear,130,2013-04-25 22:53:00
6:53 PM,70.0,43.0,38,30.16,10.0,ESE,12.7,-,N/A,,Partly Cloudy,110,2013-04-25 23:53:00
7:53 PM,66.9,45.0,45,30.17,10.0,SE,6.9,-,N/A,,Scattered Clouds,130,2013-04-26 00:53:00
8:53 PM,68.0,43.0,40,30.16,10.0,SE,11.5,-,N/A,,Overcast,130,2013-04-26 01:53:00
9:53 PM,64.9,44.1,47,30.17,10.0,ESE,8.1,-,N/A,,Scattered Clouds,120,2013-04-26 02:53:00
10:53 PM,63.0,44.1,50,30.16,10.0,ESE,8.1,-,N/A,,Clear,120,2013-04-26 03:53:00
11:53 PM,63.0,43.0,48,30.14,10.0,SE,11.5,-,N/A,,Clear,130,2013-04-26 04:53:00